EST,Max TemperatureF,Mean TemperatureF,Min TemperatureF,Max Dew PointF,MeanDew PointF,Min DewpointF,Max Humidity, Mean Humidity, Min Humidity, Max Sea Level PressureIn, Mean Sea Level PressureIn, Min Sea Level PressureIn, Max VisibilityMiles, Mean VisibilityMiles, Min VisibilityMiles, Max Wind SpeedMPH, Mean Wind SpeedMPH, Max Gust SpeedMPH,PrecipitationIn, CloudCover, Events, WindDirDegrees
2014-2-1,39,34,30,37,32,27,97,92,85,30.11,29.92,29.81,8,4,2,18,9,,0.67,8,Rain-Snow,173
2014-2-2,33,27,21,31,22,15,96,85,75,30.24,30.11,29.95,10,6,1,15,8,,0.18,7,Snow,341
2014-2-3,25,13,1,15,8,1,96,80,53,30.41,30.32,30.20,10,6,0,10,6,,0.00,1,Fog,3
2014-2-4,23,13,3,18,14,-2,89,83,68,30.46,30.25,30.02,10,4,0,23,9,29,0.06,4,Fog-Snow,55
2014-2-5,26,19,9,20,18,5,92,84,68,30.37,29.95,29.74,10,4,0,24,18,33,0.05,7,Fog-Snow,7
2014-2-6,19,8,-4,12,4,-10,96,81,69,30.42,30.38,30.32,10,6,2,22,7,,0.00,5,Snow,235
2014-2-7,9,-2,-14,-2,-9,-18,86,72,59,30.46,30.42,30.39,10,10,10,15,10,,0.00,0,,226
2014-2-8,16,8,0,12,3,-7,88,74,49,30.38,30.27,30.17,10,7,1,8,5,,0.03,5,Snow,144
2014-2-9,21,16,8,19,14,3,92,84,71,30.22,30.09,30.03,10,4,0,15,8,,0.16,6,Fog-Snow,254
2014-2-10,12,6,0,5,-1,-6,88,81,70,30.42,30.31,30.20,8,5,2,10,8,,0.00,1,,255
2014-2-11,10,0,-9,1,-6,-14,96,78,64,30.53,30.48,30.39,10,7,4,8,4,,0.00,2,Snow,278
2014-2-12,21,2,-18,7,-5,-22,95,74,53,30.47,30.29,30.10,10,6,3,9,3,,0.00,2,,103
2014-2-13,30,16,3,18,9,1,88,70,49,30.05,29.83,29.54,10,8,3,12,5,,0.00,3,,66
2014-2-14,32,26,19,25,18,14,86,77,59,29.80,29.64,29.46,10,7,6,28,16,44,0.00,7,,257
2014-2-15,19,14,10,15,9,4,84,75,64,30.09,30.01,29.80,10,9,5,17,9,,0.00,2,,282
2014-2-16,25,18,10,19,14,7,89,79,65,30.34,30.06,29.92,10,4,1,14,7,,0.00,7,Snow,288
2014-2-17,32,19,6,31,20,2,96,84,58,30.36,29.86,29.64,10,4,0,30,14,39,0.14,7,Fog-Snow,141
2014-2-18,41,32,25,30,26,18,93,79,60,30.06,29.86,29.68,10,6,1,31,22,45,0.01,5,Snow,231
2014-2-19,42,36,27,31,29,25,92,75,60,30.08,29.86,29.62,10,8,3,18,14,,0.00,1,,232
2014-2-20,48,38,28,43,33,26,100,86,79,30.08,29.75,29.45,10,6,1,21,12,25,0.43,6,Rain,125
2014-2-21,46,40,34,44,29,19,97,72,50,29.88,29.66,29.48,10,9,0,31,19,47,0.01,4,Fog-Rain,230
2014-2-22,39,36,33,34,27,18,96,73,50,30.04,29.97,29.81,10,9,6,23,15,30,0.06,5,Rain-Snow,260
2014-2-23,34,29,24,32,22,14,96,73,54,30.14,30.08,30.00,10,10,10,16,9,23,0.00,3,,268
2014-2-24,28,23,18,15,13,11,74,68,56,30.21,30.18,30.12,10,10,10,22,15,29,0.00,2,,266
2014-2-25,25,22,18,17,15,10,88,76,63,30.19,30.13,30.05,10,6,1,23,10,29,0.00,7,Snow,280
2014-2-26,19,14,10,11,5,2,79,68,52,30.17,30.05,29.76,10,6,0,22,16,30,0.00,7,Snow,271
2014-2-27,19,13,7,10,2,-6,77,59,38,30.22,29.88,29.61,10,8,1,28,20,40,0.00,4,Snow,295
2014-2-28,27,15,3,9,0,-7,70,52,34,30.33,30.23,30.09,10,10,10,13,7,23,0.00,0,,122